Time,TemperatureF,DewpointF,PressureIn,WindDirection,WindDirectionDegrees,WindSpeedMPH,WindSpeedGustMPH,Humidity,HourlyPrecipIn,Conditions,Clouds,dailyrainin,SoftwareType,DateUTC
2013-01-09 00:03:00,30.0,28.0,30.40,North,0,0.0,0.0,91,0.00,,,0.00,,2013-01-09 05:03:00,
2013-01-09 00:12:00,30.0,28.0,30.40,North,0,0.0,0.0,91,0.00,,,0.00,,2013-01-09 05:12:00,
2013-01-09 00:22:00,30.0,28.0,30.40,North,0,0.0,0.0,92,0.00,,,0.00,,2013-01-09 05:22:00,
2013-01-09 00:33:00,29.0,27.0,30.39,North,0,0.0,0.0,92,0.00,,,0.00,,2013-01-09 05:33:00,
2013-01-09 00:43:00,29.0,27.0,30.39,North,0,0.0,0.0,92,0.00,,,0.00,,2013-01-09 05:43:00,
2013-01-09 00:52:00,29.0,27.0,30.39,North,0,0.0,0.0,93,0.00,,,0.00,,2013-01-09 05:52:00,
2013-01-09 01:02:00,29.0,27.0,30.40,North,0,0.0,0.0,94,0.00,,,0.00,,2013-01-09 06:02:00,
2013-01-09 01:12:00,29.0,27.0,30.40,North,0,0.0,0.0,94,0.00,,,0.00,,2013-01-09 06:12:00,
2013-01-09 01:22:00,28.0,26.0,30.39,North,0,0.0,0.0,93,0.00,,,0.00,,2013-01-09 06:22:00,
2013-01-09 01:32:00,28.0,26.0,30.39,North,0,0.0,0.0,93,0.00,,,0.00,,2013-01-09 06:32:00,
2013-01-09 01:42:00,28.0,26.0,30.39,North,0,0.0,0.0,93,0.00,,,0.00,,2013-01-09 06:42:00,
2013-01-09 01:52:00,28.0,27.0,30.39,North,0,0.0,0.0,94,0.00,,,0.00,,2013-01-09 06:52:00,
2013-01-09 02:02:00,28.0,27.0,30.39,North,0,0.0,0.0,94,0.00,,,0.00,,2013-01-09 07:02:00,
2013-01-09 02:12:00,28.0,27.0,30.39,North,0,0.0,0.0,94,0.00,,,0.00,,2013-01-09 07:12:00,
2013-01-09 02:22:00,28.0,27.0,30.39,North,0,0.0,0.0,95,0.00,,,0.00,,2013-01-09 07:22:00,
2013-01-09 02:32:00,28.0,27.0,30.39,North,0,0.0,0.0,95,0.00,,,0.00,,2013-01-09 07:32:00,
2013-01-09 02:42:00,28.0,27.0,30.39,North,0,0.0,0.0,95,0.00,,,0.00,,2013-01-09 07:42:00,
2013-01-09 02:52:00,28.0,27.0,30.39,North,0,0.0,0.0,95,0.00,,,0.00,,2013-01-09 07:52:00,
2013-01-09 03:02:00,27.0,26.0,30.39,North,0,0.0,0.0,95,0.00,,,0.00,,2013-01-09 08:02:00,
2013-01-09 03:12:00,27.0,26.0,30.39,North,0,0.0,0.0,95,0.00,,,0.00,,2013-01-09 08:12:00,
2013-01-09 03:22:00,27.0,26.0,30.40,North,0,0.0,0.0,96,0.00,,,0.00,,2013-01-09 08:22:00,
2013-01-09 03:32:00,27.0,26.0,30.39,North,0,0.0,0.0,95,0.00,,,0.00,,2013-01-09 08:32:00,
2013-01-09 03:42:00,27.0,26.0,30.39,North,0,0.0,0.0,95,0.00,,,0.00,,2013-01-09 08:42:00,
2013-01-09 03:53:00,26.0,25.0,30.39,North,0,0.0,0.0,95,0.00,,,0.00,,2013-01-09 08:53:00,
2013-01-09 04:02:00,26.0,25.0,30.37,North,0,0.0,0.0,96,0.00,,,0.00,,2013-01-09 09:02:00,
2013-01-09 04:12:00,26.0,25.0,30.37,North,0,0.0,0.0,96,0.00,,,0.00,,2013-01-09 09:12:00,
2013-01-09 04:22:00,27.0,26.0,30.38,North,0,0.0,0.0,96,0.00,,,0.00,,2013-01-09 09:22:00,
2013-01-09 04:32:00,26.0,25.0,30.37,North,0,0.0,0.0,96,0.00,,,0.00,,2013-01-09 09:32:00,
2013-01-09 04:42:00,26.0,25.0,30.37,North,0,0.0,0.0,96,0.00,,,0.00,,2013-01-09 09:42:00,
2013-01-09 04:53:00,26.0,25.0,30.37,North,0,0.0,0.0,96,0.00,,,0.00,,2013-01-09 09:53:00,
2013-01-09 05:02:00,26.0,25.0,30.37,North,0,0.0,0.0,96,0.00,,,0.00,,2013-01-09 10:02:00,
2013-01-09 05:12:00,26.0,25.0,30.37,North,0,0.0,0.0,96,0.00,,,0.00,,2013-01-09 10:12:00,
2013-01-09 05:22:00,26.0,25.0,30.37,North,0,0.0,0.0,96,0.00,,,0.00,,2013-01-09 10:22:00,
2013-01-09 05:32:00,26.0,25.0,30.37,North,0,0.0,0.0,96,0.00,,,0.00,,2013-01-09 10:32:00,
2013-01-09 05:42:00,26.0,25.0,30.37,North,0,0.0,0.0,96,0.00,,,0.00,,2013-01-09 10:42:00,
2013-01-09 05:52:00,26.0,25.0,30.37,North,0,0.0,0.0,96,0.00,,,0.00,,2013-01-09 10:52:00,
2013-01-09 06:02:00,26.0,25.0,30.37,North,0,0.0,0.0,96,0.00,,,0.00,,2013-01-09 11:02:00,
2013-01-09 06:12:00,26.0,25.0,30.37,North,0,0.0,0.0,96,0.00,,,0.00,,2013-01-09 11:12:00,
2013-01-09 06:22:00,26.0,25.0,30.37,North,0,0.0,0.0,96,0.00,,,0.00,,2013-01-09 11:22:00,
2013-01-09 06:33:00,26.0,25.0,30.37,North,0,0.0,0.0,96,0.00,,,0.00,,2013-01-09 11:33:00,
2013-01-09 06:43:00,26.0,25.0,30.37,North,0,0.0,0.0,96,0.00,,,0.00,,2013-01-09 11:43:00,
2013-01-09 06:53:00,26.0,25.0,30.38,North,0,0.0,0.0,96,0.00,,,0.00,,2013-01-09 11:53:00,
2013-01-09 07:03:00,26.0,25.0,30.38,North,0,0.0,0.0,96,0.00,,,0.00,,2013-01-09 12:03:00,
2013-01-09 07:12:00,26.0,25.0,30.38,North,0,0.0,0.0,96,0.00,,,0.00,,2013-01-09 12:12:00,
2013-01-09 07:23:00,26.0,25.0,30.38,North,0,0.0,0.0,96,0.00,,,0.00,,2013-01-09 12:23:00,
2013-01-09 07:30:00,25.0,24.0,30.38,North,0,0.0,0.0,96,0.00,,,0.00,,2013-01-09 12:30:00,
2013-01-09 07:33:00,26.0,25.0,30.39,North,0,0.0,0.0,96,0.00,,,0.00,,2013-01-09 12:33:00,
2013-01-09 07:43:00,26.0,25.0,30.39,North,0,0.0,0.0,96,0.00,,,0.00,,2013-01-09 12:43:00,
2013-01-09 07:52:00,25.0,24.0,30.38,North,0,0.0,0.0,96,0.00,,,0.00,,2013-01-09 12:52:00,
2013-01-09 08:03:00,25.0,24.0,30.38,North,0,0.0,0.0,96,0.00,,,0.00,,2013-01-09 13:03:00,
2013-01-09 08:12:00,25.0,24.0,30.38,North,0,0.0,0.0,96,0.00,,,0.00,,2013-01-09 13:12:00,
2013-01-09 08:23:00,25.0,24.0,30.38,North,0,0.0,0.0,96,0.00,,,0.00,,2013-01-09 13:23:00,
2013-01-09 08:53:00,28.0,27.0,30.39,North,0,0.0,0.0,96,0.00,,,0.00,,2013-01-09 13:53:00,
2013-01-09 09:03:00,28.0,27.0,30.39,North,0,0.0,0.0,96,0.00,,,0.00,,2013-01-09 14:03:00,
2013-01-09 09:12:00,28.0,27.0,30.39,North,0,0.0,0.0,96,0.00,,,0.00,,2013-01-09 14:12:00,
2013-01-09 09:23:00,28.0,27.0,30.39,North,0,0.0,0.0,96,0.00,,,0.00,,2013-01-09 14:23:00,
2013-01-09 09:33:00,28.0,27.0,30.39,North,0,0.0,0.0,96,0.00,,,0.00,,2013-01-09 14:33:00,
2013-01-09 10:04:00,33.0,31.0,30.39,North,0,0.0,0.0,93,0.00,,,0.00,,2013-01-09 15:04:00,
2013-01-09 10:13:00,33.0,31.0,30.39,North,0,0.0,0.0,93,0.00,,,0.00,,2013-01-09 15:13:00,
2013-01-09 10:23:00,34.0,32.0,30.39,North,0,0.0,0.0,93,0.00,,,0.00,,2013-01-09 15:23:00,
2013-01-09 10:33:00,35.0,33.0,30.37,North,0,0.0,0.0,91,0.00,,,0.00,,2013-01-09 15:33:00,
2013-01-09 10:42:00,35.0,33.0,30.37,North,0,0.0,0.0,91,0.00,,,0.00,,2013-01-09 15:42:00,
2013-01-09 10:53:00,37.0,34.0,30.35,SE,146,0.0,1.0,89,0.00,,,0.00,,2013-01-09 15:53:00,
2013-01-09 11:03:00,38.0,35.0,30.34,SE,140,0.0,2.0,88,0.00,,,0.00,,2013-01-09 16:03:00,
2013-01-09 11:12:00,38.0,35.0,30.34,SE,140,0.0,2.0,88,0.00,,,0.00,,2013-01-09 16:12:00,
2013-01-09 11:23:00,38.0,34.0,30.32,SSE,167,1.0,2.0,86,0.00,,,0.00,,2013-01-09 16:23:00,
2013-01-09 11:33:00,39.0,35.0,30.30,SE,133,1.0,2.0,85,0.00,,,0.00,,2013-01-09 16:33:00,
2013-01-09 11:43:00,39.0,35.0,30.30,SE,133,1.0,2.0,85,0.00,,,0.00,,2013-01-09 16:43:00,
2013-01-09 11:52:00,39.0,35.0,30.30,SE,133,1.0,2.0,85,0.00,,,0.00,,2013-01-09 16:52:00,
2013-01-09 12:03:00,39.0,35.0,30.30,SE,133,1.0,2.0,85,0.00,,,0.00,,2013-01-09 17:03:00,
2013-01-09 12:12:00,39.0,35.0,30.30,SE,133,1.0,2.0,85,0.00,,,0.00,,2013-01-09 17:12:00,
2013-01-09 12:23:00,41.0,34.0,30.29,WNW,288,0.0,1.0,77,0.00,,,0.00,,2013-01-09 17:23:00,
2013-01-09 12:33:00,41.0,34.0,30.27,SW,229,0.0,2.0,77,0.00,,,0.00,,2013-01-09 17:33:00,
2013-01-09 12:43:00,41.0,34.0,30.27,SW,229,0.0,2.0,77,0.00,,,0.00,,2013-01-09 17:43:00,
2013-01-09 12:53:00,41.0,34.0,30.26,NNW,348,0.0,1.0,77,0.00,,,0.00,,2013-01-09 17:53:00,
2013-01-09 13:03:00,41.0,34.0,30.26,NNW,348,0.0,1.0,77,0.00,,,0.00,,2013-01-09 18:03:00,
2013-01-09 13:12:00,41.0,34.0,30.26,NNW,348,0.0,1.0,77,0.00,,,0.00,,2013-01-09 18:12:00,
2013-01-09 13:24:00,41.0,34.0,30.26,NNW,348,0.0,1.0,77,0.00,,,0.00,,2013-01-09 18:24:00,
2013-01-09 13:33:00,42.0,35.0,30.25,North,0,0.0,0.0,77,0.00,,,0.00,,2013-01-09 18:33:00,
2013-01-09 13:43:00,42.0,35.0,30.25,North,0,0.0,0.0,77,0.00,,,0.00,,2013-01-09 18:43:00,
2013-01-09 13:53:00,42.0,35.0,30.27,North,0,0.0,0.0,76,0.00,,,0.00,,2013-01-09 18:53:00,
2013-01-09 14:03:00,42.0,35.0,30.26,North,0,0.0,0.0,76,0.00,,,0.00,,2013-01-09 19:03:00,
2013-01-09 14:13:00,42.0,35.0,30.26,North,0,0.0,0.0,76,0.00,,,0.00,,2013-01-09 19:13:00,
2013-01-09 14:23:00,42.0,35.0,30.26,North,0,0.0,0.0,76,0.00,,,0.00,,2013-01-09 19:23:00,
2013-01-09 14:33:00,41.0,35.0,30.24,North,0,0.0,0.0,78,0.00,,,0.00,,2013-01-09 19:33:00,
2013-01-09 14:43:00,41.0,35.0,30.24,North,0,0.0,0.0,78,0.00,,,0.00,,2013-01-09 19:43:00,
2013-01-09 14:53:00,41.0,35.0,30.20,SSW,193,0.0,1.0,78,0.00,,,0.00,,2013-01-09 19:53:00,
2013-01-09 15:03:00,41.0,34.0,30.18,North,0,0.0,0.0,77,0.00,,,0.00,,2013-01-09 20:03:00,
2013-01-09 15:12:00,41.0,34.0,30.18,North,0,0.0,0.0,77,0.00,,,0.00,,2013-01-09 20:12:00,
2013-01-09 15:23:00,42.0,35.0,30.14,North,355,0.0,1.0,77,0.00,,,0.00,,2013-01-09 20:23:00,
2013-01-09 15:33:00,42.0,35.0,30.16,North,353,1.0,1.0,77,0.00,,,0.00,,2013-01-09 20:33:00,
2013-01-09 15:43:00,42.0,35.0,30.16,North,353,1.0,1.0,77,0.00,,,0.00,,2013-01-09 20:43:00,
2013-01-09 15:53:00,42.0,35.0,30.16,North,353,1.0,1.0,77,0.00,,,0.00,,2013-01-09 20:53:00,
2013-01-09 16:03:00,42.0,36.0,30.14,North,0,0.0,0.0,78,0.00,,,0.00,,2013-01-09 21:03:00,
2013-01-09 16:13:00,42.0,36.0,30.14,North,0,0.0,0.0,78,0.00,,,0.00,,2013-01-09 21:13:00,
2013-01-09 16:23:00,42.0,36.0,30.16,North,0,0.0,0.0,78,0.00,,,0.00,,2013-01-09 21:23:00,
2013-01-09 16:33:00,42.0,36.0,30.15,North,0,0.0,0.0,79,0.00,,,0.00,,2013-01-09 21:33:00,
2013-01-09 16:43:00,42.0,36.0,30.15,North,0,0.0,0.0,79,0.00,,,0.00,,2013-01-09 21:43:00,
2013-01-09 16:52:00,42.0,36.0,30.15,North,0,0.0,0.0,80,0.00,,,0.00,,2013-01-09 21:52:00,
2013-01-09 17:03:00,42.0,36.0,30.15,North,0,0.0,0.0,80,0.00,,,0.00,,2013-01-09 22:03:00,
2013-01-09 17:12:00,42.0,36.0,30.15,North,0,0.0,0.0,80,0.00,,,0.00,,2013-01-09 22:12:00,
2013-01-09 17:23:00,42.0,36.0,30.16,North,0,0.0,0.0,80,0.00,,,0.00,,2013-01-09 22:23:00,
2013-01-09 17:33:00,42.0,36.0,30.17,North,0,0.0,0.0,80,0.00,,,0.00,,2013-01-09 22:33:00,
2013-01-09 17:43:00,42.0,36.0,30.17,North,0,0.0,0.0,80,0.00,,,0.00,,2013-01-09 22:43:00,
2013-01-09 17:52:00,42.0,36.0,30.16,North,0,0.0,0.0,79,0.00,,,0.00,,2013-01-09 22:52:00,
2013-01-09 18:03:00,42.0,36.0,30.16,North,0,0.0,0.0,80,0.00,,,0.00,,2013-01-09 23:03:00,
2013-01-09 18:13:00,41.0,36.0,30.16,North,0,0.0,0.0,82,0.00,,,0.00,,2013-01-09 23:13:00,
2013-01-09 18:23:00,41.0,36.0,30.16,North,0,0.0,0.0,82,0.00,,,0.00,,2013-01-09 23:23:00,
2013-01-09 18:33:00,41.0,36.0,30.16,North,0,0.0,0.0,82,0.00,,,0.00,,2013-01-09 23:33:00,
2013-01-09 18:43:00,41.0,36.0,30.16,North,0,0.0,0.0,82,0.00,,,0.00,,2013-01-09 23:43:00,
2013-01-09 18:52:00,42.0,38.0,30.15,West,275,0.0,5.0,84,0.00,,,0.00,,2013-01-09 23:52:00,
2013-01-09 19:03:00,43.0,38.0,30.17,NNW,341,0.0,4.0,82,0.00,,,0.00,,2013-01-10 00:03:00,
2013-01-09 19:12:00,43.0,38.0,30.17,NNW,341,0.0,4.0,82,0.00,,,0.00,,2013-01-10 00:12:00,
2013-01-09 19:22:00,43.0,38.0,30.17,WNW,294,1.0,2.0,82,0.00,,,0.00,,2013-01-10 00:22:00,
2013-01-09 19:32:00,42.0,37.0,30.18,WNW,283,0.0,1.0,82,0.00,,,0.00,,2013-01-10 00:32:00,
2013-01-09 19:42:00,42.0,37.0,30.18,WNW,283,0.0,1.0,82,0.00,,,0.00,,2013-01-10 00:42:00,
2013-01-09 19:52:00,42.0,38.0,30.18,NNW,329,0.0,1.0,84,0.00,,,0.00,,2013-01-10 00:52:00,
2013-01-09 20:02:00,42.0,37.0,30.18,West,279,0.0,2.0,83,0.00,,,0.00,,2013-01-10 01:02:00,
2013-01-09 20:12:00,42.0,37.0,30.18,West,279,0.0,2.0,83,0.00,,,0.00,,2013-01-10 01:12:00,
2013-01-09 20:22:00,42.0,38.0,30.18,West,281,0.0,1.0,84,0.00,,,0.00,,2013-01-10 01:22:00,
2013-01-09 20:33:00,43.0,38.0,30.17,West,273,1.0,5.0,82,0.00,,,0.00,,2013-01-10 01:33:00,
2013-01-09 20:43:00,43.0,38.0,30.17,West,273,1.0,5.0,82,0.00,,,0.00,,2013-01-10 01:43:00,
2013-01-09 20:52:00,44.0,38.0,30.17,West,270,0.0,3.0,80,0.00,,,0.00,,2013-01-10 01:52:00,
2013-01-09 21:03:00,44.0,38.0,30.17,West,270,0.0,3.0,80,0.00,,,0.00,,2013-01-10 02:03:00,
2013-01-09 21:12:00,44.0,38.0,30.17,West,270,0.0,3.0,80,0.00,,,0.00,,2013-01-10 02:12:00,
2013-01-09 21:22:00,44.0,38.0,30.17,West,270,0.0,3.0,80,0.00,,,0.00,,2013-01-10 02:22:00,
2013-01-09 21:32:00,45.0,38.0,30.16,West,266,1.0,4.0,76,0.00,,,0.00,,2013-01-10 02:32:00,
2013-01-09 21:43:00,45.0,38.0,30.16,West,266,1.0,4.0,76,0.00,,,0.00,,2013-01-10 02:43:00,
2013-01-09 21:53:00,45.0,38.0,30.16,West,266,1.0,4.0,76,0.00,,,0.00,,2013-01-10 02:53:00,
2013-01-09 22:03:00,45.0,38.0,30.17,West,273,1.0,4.0,75,0.00,,,0.00,,2013-01-10 03:03:00,
2013-01-09 22:12:00,45.0,38.0,30.17,West,273,1.0,4.0,75,0.00,,,0.00,,2013-01-10 03:12:00,
2013-01-09 22:22:00,45.0,38.0,30.18,WSW,258,1.0,4.0,76,0.00,,,0.00,,2013-01-10 03:22:00,
2013-01-09 22:33:00,44.0,37.0,30.18,WSW,250,0.0,3.0,76,0.00,,,0.00,,2013-01-10 03:33:00,
2013-01-09 22:43:00,44.0,37.0,30.18,WSW,250,0.0,3.0,76,0.00,,,0.00,,2013-01-10 03:43:00,
2013-01-09 22:52:00,42.0,36.0,30.19,North,0,0.0,0.0,79,0.00,,,0.00,,2013-01-10 03:52:00,
2013-01-09 23:02:00,42.0,36.0,30.19,WSW,255,0.0,1.0,79,0.00,,,0.00,,2013-01-10 04:02:00,
2013-01-09 23:12:00,42.0,36.0,30.19,WSW,255,0.0,1.0,79,0.00,,,0.00,,2013-01-10 04:12:00,
2013-01-09 23:22:00,42.0,36.0,30.20,West,265,0.0,2.0,78,0.00,,,0.00,,2013-01-10 04:22:00,
2013-01-09 23:32:00,42.0,35.0,30.21,West,279,0.0,1.0,76,0.00,,,0.00,,2013-01-10 04:32:00,
2013-01-09 23:43:00,42.0,35.0,30.21,West,279,0.0,1.0,76,0.00,,,0.00,,2013-01-10 04:43:00,
2013-01-09 23:52:00,43.0,35.0,30.21,West,261,1.0,6.0,74,0.00,,,0.00,,2013-01-10 04:52:00,